User: anonymous   Login
Location: Newark
(48.6461°N, 4.3644°W)
Time: 16:14:32
(UTC+00:00)
Language:

A-11 Canister half - Orbit

View from above orbital plane
View from above orbital plane
View from above satellite
View from above satellite

Ground track
Ground track

The orbit data is extracted from the following two-line orbital elements,

1 00051U 60009C   21018.79647034 -.00000115  00000-0 -28257-3 0  9999
2 00051  47.2144  41.2027 0104255  83.7023 277.5628 12.18270657690344
Epoch (UTC): 18 January 2021 19:06:55
Eccentricity: 0.0104255
inclination: 47.2144°
perigee height: 1517 km
apogee height: 1683 km
right ascension of ascending node: 41.2027°
argument of perigee: 83.7023°
revolutions per day: 12.18270657
mean anomaly at epoch: 277.5628°
orbit number at epoch: 69034

The dashed part of the orbit path shows where the satellite is in the earth's shadow,  

DLR